QPF
0.00 0.02 0.06 0.03 0.05 0.05 0.04 0.01 0.00 0.00 0.00 0.00 0.00 0.00 0.00 0.00 0.00 0.00 0.00 0.00 0.02 0.01 0.02 0.02 0.01 0.01 0.00 0.00 0.00 0.00 0.00 0.00 0.00 0.00 0.00 0.00 0.00 0.00 0.00 0.00 0.00 0.01 0.01
0.00 0.04 0.11 0.10 0.11 0.09 0.10 0.08 0.01 0.00 0.00 0.00 0.00 0.00 0.00 0.01 0.01 0.01 0.00 0.00 0.02 0.06 0.03 0.06 0.10 0.06 0.02 0.00 0.00 0.00 0.00 0.00 0.00 0.00 0.00 0.01 0.01 0.01 0.00 0.00 0.00 0.00 0.00
0.01 0.04 0.07 0.06 0.13 0.11 0.06 0.02 0.01 0.00 0.00 0.00 0.00 0.00 0.00 0.03 0.08 0.08 0.02 0.00 0.01 0.07 0.10 0.09 0.07 0.05 0.09 0.04 0.01 0.00 0.00 0.00 0.00 0.00 0.00 0.00 0.02 0.02 0.01 0.00 0.00 0.00 0.00
0.00 0.00 0.00 0.09 0.17 0.15 0.10 0.17 0.11 0.06 0.07 0.04 0.01 0.01 0.00 0.00 0.08 0.11 0.07 0.00 0.00 0.01 0.04 0.07 0.06 0.02 0.12 0.17 0.10 0.03 0.00 0.00 0.00 0.00 0.00 0.00 0.00 0.01 0.01 0.00 0.00 0.00 0.00
0.00 0.00 0.00 0.13 0.22 0.22 0.25 0.31 0.28 0.16 0.09 0.11 0.12 0.08 0.01 0.00 0.02 0.09 0.06 0.00 0.00 0.01 0.01 0.05 0.06 0.10 0.12 0.14 0.18 0.10 0.06 0.02 0.00 0.00 0.00 0.00 0.00 0.00 0.00 0.00 0.00 0.00 0.00
0.03 0.00 0.00 0.06 0.17 0.25 0.13 0.14 0.11 0.10 0.21 0.20 0.15 0.02 0.02 0.01 0.01 0.03 0.04 0.01 0.00 0.00 0.00 0.00 0.02 0.04 0.06 0.10 0.09 0.08 0.07 0.03 0.00 0.00 0.00 0.00 0.00 0.00 0.00 0.00 0.00 0.00 0.00
0.00 0.00 0.00 0.01 0.06 0.05 0.17 0.05 0.04 0.04 0.04 0.08 0.05 0.00 0.03 0.05 0.01 0.00 0.00 0.00 0.00 0.00 0.00 0.00 0.00 0.00 0.03 0.11 0.05 0.10 0.13 0.03 0.01 0.00 0.01 0.00 0.00 0.00 0.00 0.00 0.00 0.00 0.00
0.00 0.00 0.00 0.00 0.01 0.01 0.01 0.06 0.04 0.01 0.00 0.01 0.02 0.00 0.00 0.00 0.00 0.00 0.00 0.00 0.00 0.00 0.00 0.00 0.01 0.01 0.03 0.02 0.01 0.06 0.13 0.14 0.05 0.04 0.03 0.01 0.03 0.00 0.00 0.00 0.00 0.00 0.00
0.01 0.04 0.03 0.05 0.05 0.06 0.04 0.02 0.02 0.01 0.00 0.00 0.01 0.03 0.01 0.00 0.00 0.00 0.00 0.00 0.00 0.00 0.00 0.03 0.03 0.02 0.04 0.09 0.06 0.07 0.22 0.10 0.09 0.05 0.01 0.01 0.16 0.02 0.02 0.01 0.00 0.00 0.00
0.03 0.04 0.02 0.08 0.03 0.00 0.00 0.00 0.00 0.00 0.00 0.00 0.01 0.10 0.07 0.01 0.01 0.00 0.00 0.00 0.00 0.00 0.00 0.01 0.02 0.03 0.10 0.10 0.21 0.02 0.04 0.12 0.06 0.09 0.08 0.02 0.10 0.10 0.03 0.02 0.01 0.00 0.00
0.01 0.00 0.00 0.00 0.00 0.00 0.00 0.00 0.00 0.00 0.00 0.01 0.05 0.07 0.04 0.03 0.03 0.02 0.01 0.04 0.08 0.03 0.01 0.00 0.02 0.09 0.19 0.14 0.17 0.12 0.05 0.17 0.16 0.10 0.14 0.11 0.11 0.11 0.05 0.01 0.01 0.00 0.00
0.00 0.00 0.00 0.00 0.00 0.00 0.00 0.00 0.00 0.00 0.00 0.00 0.00 0.01 0.04 0.09 0.07 0.05 0.04 0.11 0.17 0.13 0.07 0.01 0.00 0.05 0.10 0.09 0.06 0.06 0.02 0.07 0.18 0.23 0.18 0.18 0.17 0.17 0.14 0.06 0.02 0.00 0.00
0.00 0.00 0.00 0.00 0.00 0.00 0.00 0.00 0.00 0.00 0.00 0.00 0.00 0.00 0.00 0.02 0.07 0.09 0.11 0.23 0.29 0.12 0.03 0.01 0.01 0.07 0.08 0.07 0.05 0.03 0.01 0.03 0.14 0.18 0.14 0.09 0.06 0.08 0.10 0.09 0.09 0.05 0.01
0.00 0.00 0.00 0.00 0.00 0.00 0.00 0.00 0.00 0.00 0.00 0.00 0.00 0.00 0.00 0.00 0.02 0.08 0.11 0.20 0.27 0.07 0.02 0.02 0.02 0.06 0.15 0.22 0.16 0.05 0.01 0.01 0.05 0.11 0.13 0.16 0.15 0.16 0.12 0.09 0.07 0.12 0.12
0.00 0.00 0.00 0.00 0.00 0.00 0.00 0.00 0.00 0.00 0.00 0.00 0.00 0.00 0.00 0.00 0.00 0.00 0.01 0.01 0.01 0.01 0.00 0.02 0.05 0.03 0.06 0.12 0.14 0.05 0.02 0.06 0.10 0.08 0.12 0.13 0.14 0.13 0.12 0.14 0.11 0.06 0.07
0.00 0.00 0.00 0.00 0.00 0.00 0.00 0.00 0.00 0.00 0.00 0.00 0.00 0.00 0.00 0.00 0.00 0.00 0.00 0.00 0.00 0.02 0.02 0.07 0.16 0.10 0.09 0.11 0.11 0.09 0.13 0.14 0.09 0.04 0.02 0.00 0.01 0.03 0.03 0.09 0.16 0.15 0.05
0.00 0.00 0.00 0.00 0.00 0.00 0.00 0.00 0.00 0.00 0.00 0.00 0.00 0.00 0.00 0.00 0.00 0.00 0.00 0.00 0.00 0.00 0.00 0.00 0.00 0.02 0.02 0.03 0.06 0.09 0.06 0.04 0.05 0.06 0.03 0.01 0.00 0.01 0.00 0.02 0.07 0.16 0.13
0.00 0.00 0.00 0.00 0.00 0.00 0.00 0.00 0.00 0.00 0.00 0.00 0.00 0.00 0.00 0.00 0.00 0.00 0.00 0.00 0.00 0.00 0.00 0.00 0.00 0.00 0.00 0.00 0.01 0.04 0.06 0.04 0.01 0.01 0.01 0.01 0.00 0.00 0.00 0.02 0.02 0.04 0.07
0.00 0.00 0.00 0.00 0.00 0.00 0.00 0.00 0.00 0.00 0.00 0.00 0.00 0.00 0.00 0.00 0.00 0.00 0.00 0.00 0.00 0.00 0.00 0.00 0.00 0.00 0.00 0.00 0.01 0.03 0.03 0.03 0.01 0.00 0.00 0.00 0.00 0.00 0.00 0.00 0.00 0.02 0.03
0.01 0.00 0.00 0.00 0.00 0.00 0.00 0.00 0.00 0.00 0.00 0.00 0.00 0.00 0.00 0.00 0.00 0.00 0.00 0.00 0.00 0.00 0.00 0.00 0.00 0.00 0.00 0.00 0.00 0.00 0.00 0.00 0.00 0.01 0.00 0.00 0.00 0.00 0.00 0.01 0.02 0.02 0.06
0.00 0.00 0.00 0.00 0.00 0.00 0.00 0.00 0.00 0.00 0.00 0.00 0.00 0.00 0.00 0.00 0.00 0.00 0.00 0.00 0.00 0.00 0.00 0.00 0.00 0.00 0.00 0.00 0.00 0.00 0.00 0.00 0.00 0.00 0.00 0.00 0.00 0.00 0.00 0.02 0.04 0.06 0.03
0.00 0.00 0.00 0.00 0.00 0.00 0.00 0.00 0.00 0.00 0.00 0.00 0.00 0.00 0.00 0.00 0.00 0.00 0.00 0.00 0.00 0.00 0.00 0.00 0.00 0.00 0.00 0.00 0.00 0.00 0.00 0.00 0.00 0.00 0.00 0.00 0.01 0.00 0.01 0.02 0.05 0.09 0.06
0.00 0.00 0.00 0.00 0.00 0.00 0.00 0.00 0.00 0.00 0.00 0.00 0.00 0.00 0.00 0.00 0.00 0.00 0.00 0.00 0.00 0.00 0.00 0.00 0.00 0.00 0.00 0.00 0.00 0.00 0.00 0.00 0.00 0.00 0.00 0.00 0.00 0.00 0.00 0.00 0.01 0.01 0.03
0.00 0.00 0.00 0.00 0.00 0.00 0.00 0.00 0.00 0.00 0.00 0.00 0.00 0.00 0.00 0.00 0.00 0.00 0.00 0.00 0.00 0.00 0.00 0.00 0.00 0.00 0.00 0.00 0.00 0.00 0.00 0.00 0.00 0.00 0.01 0.00 0.00 0.00 0.00 0.00 0.00 0.00 0.02
0.00 0.00 0.00 0.00 0.00 0.00 0.00 0.00 0.00 0.00 0.00 0.00 0.00 0.00 0.00 0.00 0.00 0.00 0.00 0.00 0.00 0.00 0.00 0.00 0.00 0.00 0.00 0.00 0.00 0.00 0.00 0.00 0.00 0.00 0.00 0.00 0.00 0.00 0.00 0.00 0.00 0.00 0.00
0.00 0.00 0.00 0.00 0.00 0.00 0.00 0.00 0.00 0.00 0.00 0.00 0.00 0.00 0.00 0.00 0.00 0.00 0.00 0.00 0.00 0.00 0.00 0.00 0.00 0.00 0.00 0.00 0.00 0.00 0.00 0.00 0.00 0.00 0.00 0.01 0.00 0.00 0.00 0.00 0.00 0.00 0.00
MSLP
1016.12 1016.11 1015.98 1016.15 1016.42 1016.45 1016.51 1016.49 1016.49 1016.38 1016.39 1016.39 1016.36 1016.36 1016.23 1016.11 1016.05 1016.21 1016.32 1016.25 1016.24 1016.36 1016.46 1016.60 1016.77 1017.03 1017.42 1017.85 1018.15 1018.33 1018.50 1018.69 1018.91 1019.19 1019.35 1019.54 1019.82 1020.03 1020.27 1020.50 1020.64 1020.80 1020.90
1015.79 1016.05 1015.86 1015.79 1015.95 1016.27 1016.44 1016.37 1016.30 1016.02 1016.06 1016.00 1016.02 1015.79 1015.76 1015.64 1015.62 1015.65 1015.77 1015.92 1015.88 1015.94 1016.01 1016.14 1016.36 1016.47 1016.91 1017.30 1017.65 1017.97 1018.15 1018.30 1018.52 1018.83 1019.07 1019.26 1019.47 1019.69 1019.93 1020.17 1020.45 1020.66 1020.81
1015.60 1015.70 1015.78 1015.83 1015.38 1015.61 1015.83 1015.97 1015.84 1015.60 1015.72 1015.68 1015.71 1015.48 1015.34 1015.15 1015.27 1015.39 1015.22 1015.35 1015.45 1015.43 1015.61 1015.73 1016.06 1016.08 1016.19 1016.71 1017.12 1017.47 1017.73 1017.90 1018.10 1018.33 1018.60 1018.90 1019.24 1019.50 1019.70 1019.86 1020.09 1020.39 1020.67
1014.92 1015.15 1015.36 1015.30 1015.22 1015.35 1015.47 1015.75 1015.80 1015.66 1015.42 1015.32 1015.28 1015.05 1014.84 1014.64 1014.67 1014.65 1014.91 1014.88 1014.94 1014.93 1014.97 1015.15 1015.30 1015.45 1015.79 1016.17 1016.55 1016.90 1017.22 1017.48 1017.72 1017.91 1018.10 1018.34 1018.67 1019.02 1019.36 1019.65 1019.84 1020.08 1020.37
1014.74 1015.02 1014.93 1015.08 1015.05 1015.09 1015.23 1015.33 1015.15 1015.37 1015.09 1014.94 1014.81 1014.63 1014.44 1014.30 1014.24 1014.16 1014.41 1014.47 1014.52 1014.52 1014.64 1014.67 1014.65 1014.81 1015.17 1015.54 1015.93 1016.29 1016.59 1016.87 1017.16 1017.41 1017.68 1017.95 1018.23 1018.50 1018.76 1019.06 1019.36 1019.66 1019.96
1014.65 1014.97 1014.81 1014.67 1014.70 1014.67 1014.77 1014.85 1014.93 1014.77 1014.81 1014.70 1014.56 1014.15 1013.89 1013.77 1013.67 1013.64 1013.86 1013.82 1013.80 1013.81 1013.94 1014.07 1014.22 1014.31 1014.54 1014.82 1015.19 1015.52 1015.80 1016.05 1016.33 1016.66 1016.95 1017.28 1017.59 1017.91 1018.27 1018.54 1018.75 1019.06 1019.37
1014.30 1014.36 1014.41 1014.56 1014.57 1014.46 1014.37 1014.36 1014.54 1014.33 1014.25 1014.14 1014.30 1013.86 1013.41 1013.04 1012.88 1012.77 1012.90 1013.02 1013.09 1012.95 1013.15 1013.26 1013.46 1013.76 1013.86 1014.12 1014.34 1014.65 1014.75 1015.17 1015.54 1015.95 1016.26 1016.59 1016.95 1017.26 1017.54 1017.89 1018.21 1018.45 1018.75
1014.24 1014.38 1014.49 1014.59 1014.54 1014.45 1014.36 1014.41 1014.45 1014.42 1014.09 1014.08 1014.19 1013.91 1013.20 1012.68 1012.22 1011.91 1011.98 1012.15 1012.20 1012.22 1012.35 1012.51 1012.68 1012.93 1013.14 1013.32 1013.40 1013.54 1013.85 1014.27 1014.61 1015.03 1015.38 1015.65 1016.00 1016.39 1016.76 1017.05 1017.37 1017.76 1018.09
1014.33 1014.43 1014.35 1014.41 1014.56 1014.66 1014.53 1014.36 1014.38 1014.33 1014.19 1013.96 1013.81 1013.87 1013.20 1012.77 1012.30 1011.52 1011.51 1011.54 1011.74 1011.96 1012.03 1012.06 1012.22 1012.30 1012.56 1012.68 1012.76 1012.76 1012.95 1013.33 1013.62 1014.11 1014.55 1014.75 1015.10 1015.49 1015.83 1016.17 1016.52 1016.88 1017.29
1014.34 1014.26 1014.34 1014.46 1014.58 1014.68 1014.63 1014.51 1014.32 1014.13 1014.12 1013.81 1013.40 1013.04 1012.52 1012.58 1012.32 1011.79 1011.49 1011.38 1011.31 1011.47 1011.49 1011.69 1011.79 1011.71 1011.95 1012.14 1012.19 1012.23 1012.10 1012.19 1012.78 1013.07 1013.39 1013.79 1014.21 1014.53 1014.87 1015.23 1015.67 1015.98 1016.28
1014.23 1014.21 1014.38 1014.50 1014.67 1014.67 1014.61 1014.43 1014.14 1013.91 1013.78 1013.66 1013.48 1012.95 1012.23 1011.73 1011.78 1011.82 1011.56 1011.35 1011.12 1011.07 1011.05 1011.16 1011.19 1011.14 1011.19 1011.41 1011.70 1011.63 1011.70 1011.77 1012.01 1012.09 1012.42 1012.96 1013.21 1013.49 1013.79 1014.11 1014.60 1014.98 1015.36
1014.67 1014.57 1014.61 1014.70 1014.64 1014.67 1014.50 1014.22 1013.90 1013.61 1013.57 1013.54 1013.33 1012.89 1012.31 1011.55 1011.11 1011.06 1011.23 1011.23 1011.27 1011.09 1010.89 1011.00 1011.01 1010.85 1010.67 1010.74 1010.77 1010.90 1011.05 1011.31 1011.39 1011.35 1011.57 1011.81 1012.25 1012.59 1012.83 1013.17 1013.57 1013.89 1014.30
1014.91 1014.87 1014.75 1014.66 1014.62 1014.43 1014.19 1014.02 1013.86 1013.73 1013.66 1013.49 1013.16 1012.68 1012.15 1011.62 1011.05 1010.93 1011.01 1011.19 1010.95 1010.99 1010.54 1010.25 1010.26 1010.43 1010.41 1010.48 1010.48 1010.24 1010.21 1010.27 1010.57 1010.65 1010.96 1011.11 1011.27 1011.61 1011.94 1012.25 1012.54 1012.93 1013.36
1014.87 1014.77 1014.73 1014.66 1014.65 1014.37 1014.31 1014.21 1014.13 1014.03 1013.77 1013.46 1013.03 1012.62 1012.25 1011.80 1011.26 1011.06 1011.06 1011.10 1011.00 1010.93 1010.50 1010.05 1009.84 1009.79 1009.85 1009.95 1010.16 1010.17 1010.03 1009.99 1010.07 1010.22 1010.40 1010.54 1010.55 1010.90 1011.14 1011.16 1011.44 1011.81 1012.27
1014.69 1014.68 1014.67 1014.62 1014.63 1014.52 1014.42 1014.24 1014.23 1014.16 1013.87 1013.47 1013.14 1012.67 1012.29 1011.88 1011.54 1011.24 1011.12 1011.12 1011.12 1011.05 1010.69 1010.06 1009.98 1009.47 1009.49 1009.50 1009.61 1009.87 1009.70 1009.62 1009.62 1009.73 1009.97 1009.89 1009.76 1009.87 1010.39 1010.26 1010.49 1010.87 1011.28
1014.77 1014.74 1014.69 1014.64 1014.67 1014.58 1014.44 1014.33 1014.27 1014.23 1013.92 1013.61 1013.31 1012.97 1012.55 1012.11 1011.67 1011.31 1011.17 1011.13 1011.21 1011.32 1010.98 1010.30 1009.83 1009.43 1009.15 1009.04 1008.94 1009.09 1009.13 1009.24 1009.21 1009.09 1009.16 1009.23 1009.02 1009.09 1009.20 1009.75 1009.82 1009.76 1010.25
1014.81 1014.81 1014.78 1014.78 1014.62 1014.52 1014.54 1014.46 1014.35 1014.21 1014.08 1013.86 1013.43 1013.27 1012.93 1012.46 1012.06 1011.70 1011.38 1011.20 1011.21 1011.28 1011.04 1010.29 1009.72 1009.21 1009.04 1008.82 1008.59 1008.44 1008.41 1008.55 1008.49 1008.37 1008.09 1008.32 1008.27 1008.21 1008.44 1008.91 1008.89 1008.96 1009.08
1014.90 1014.98 1014.95 1014.74 1014.63 1014.56 1014.51 1014.59 1014.66 1014.52 1014.39 1014.18 1013.79 1013.46 1013.22 1012.73 1012.36 1012.04 1011.82 1011.63 1011.39 1011.19 1011.09 1010.59 1009.87 1009.36 1009.01 1008.58 1008.40 1008.31 1008.09 1007.85 1007.70 1007.44 1007.20 1007.16 1007.33 1007.44 1007.64 1007.71 1008.17 1008.60 1008.88
1014.93 1015.20 1015.16 1015.13 1014.99 1014.82 1014.81 1014.78 1014.85 1014.79 1014.54 1014.39 1014.27 1014.01 1013.67 1013.27 1013.04 1012.76 1012.36 1012.08 1011.68 1011.19 1010.86 1010.62 1010.08 1009.45 1008.95 1008.54 1008.39 1008.19 1007.97 1007.58 1007.13 1006.76 1006.55 1006.47 1006.46 1006.57 1006.77 1007.04 1007.40 1007.67 1007.80
1015.02 1015.36 1015.54 1015.53 1015.57 1015.64 1015.47 1015.19 1015.04 1014.99 1014.92 1014.86 1014.69 1014.37 1014.05 1013.83 1013.75 1013.49 1013.09 1012.71 1012.20 1011.58 1011.02 1010.63 1010.18 1009.71 1009.17 1008.61 1008.50 1008.39 1007.99 1007.53 1007.09 1006.46 1006.00 1005.81 1005.54 1005.48 1005.76 1006.08 1006.37 1006.58 1006.65
1015.51 1015.84 1015.95 1016.11 1016.08 1016.11 1016.25 1015.93 1015.49 1015.31 1015.28 1015.20 1015.13 1014.90 1014.55 1014.36 1014.27 1014.03 1013.71 1013.32 1012.82 1012.29 1011.66 1010.97 1010.51 1009.99 1009.58 1009.07 1008.99 1008.68 1008.39 1007.66 1006.84 1006.09 1005.77 1005.49 1005.39 1005.14 1004.88 1004.93 1005.05 1005.21 1005.40
1016.25 1016.78 1017.19 1016.96 1016.76 1016.74 1016.78 1016.40 1016.08 1015.86 1015.68 1015.66 1015.63 1015.34 1014.87 1014.47 1014.31 1014.11 1013.75 1013.54 1013.19 1012.69 1012.06 1011.57 1010.92 1010.53 1009.90 1009.27 1009.07 1008.96 1008.43 1007.96 1007.02 1005.86 1005.73 1005.31 1005.09 1004.77 1004.25 1003.87 1003.96 1004.19 1004.30
1016.81 1017.38 1017.80 1017.54 1017.38 1017.02 1016.81 1016.76 1016.69 1016.52 1016.49 1016.46 1016.39 1016.19 1015.63 1015.16 1014.61 1014.09 1013.63 1013.30 1012.88 1012.55 1012.05 1011.51 1011.04 1010.46 1010.02 1009.33 1009.17 1008.81 1008.39 1007.95 1007.23 1006.28 1005.91 1005.14 1004.61 1004.14 1003.66 1003.21 1003.19 1003.54 1003.93
1017.36 1017.91 1018.29 1018.10 1017.75 1017.81 1017.72 1017.37 1017.11 1017.05 1017.06 1016.86 1016.73 1016.55 1016.12 1015.66 1015.21 1014.56 1014.03 1013.52 1012.64 1011.99 1011.38 1011.01 1010.81 1010.15 1009.69 1009.04 1008.77 1008.41 1008.04 1007.48 1006.61 1005.85 1005.73 1005.00 1004.17 1003.61 1002.94 1002.88 1002.65 1002.71 1002.78
1017.84 1018.30 1018.45 1018.44 1018.51 1018.38 1018.19 1017.96 1017.48 1017.22 1017.24 1017.17 1016.86 1016.55 1016.06 1015.75 1015.30 1014.75 1014.31 1013.82 1012.96 1012.01 1011.17 1010.24 1009.78 1009.39 1008.75 1008.47 1008.17 1007.83 1007.21 1006.97 1006.05 1005.25 1004.74 1004.54 1003.83 1003.36 1002.83 1002.32 1001.95 1001.84 1001.87
1018.01 1018.36 1018.67 1018.84 1018.74 1018.61 1018.40 1018.11 1017.82 1017.57 1017.52 1017.24 1016.88 1016.40 1016.15 1015.82 1015.43 1014.99 1014.48 1014.08 1013.44 1012.56 1011.58 1010.40 1009.39 1008.74 1008.47 1007.94 1007.45 1007.17 1007.00 1006.53 1005.81 1004.85 1003.87 1004.13 1003.73 1003.55 1003.00 1002.04 1001.68 1001.65 1001.83
Thickness
5757 5757 5758 5756 5755 5754 5753 5754 5753 5754 5752 5750 5749 5748 5748 5750 5750 5749 5747 5746 5746 5743 5742 5741 5740 5738 5734 5731 5728 5725 5723 5722 5720 5718 5717 5716 5714 5713 5712 5710 5711 5711 5713
5761 5758 5759 5760 5758 5755 5754 5754 5754 5757 5756 5753 5751 5750 5751 5751 5752 5751 5750 5748 5747 5746 5745 5743 5741 5741 5737 5733 5731 5728 5725 5725 5724 5720 5719 5718 5718 5717 5715 5714 5712 5711 5712
5761 5760 5759 5761 5763 5759 5758 5757 5757 5758 5757 5755 5753 5752 5753 5754 5753 5751 5753 5751 5749 5748 5747 5745 5743 5742 5741 5736 5733 5730 5729 5728 5727 5726 5723 5720 5719 5718 5718 5718 5717 5714 5713
5765 5763 5763 5764 5763 5761 5759 5756 5756 5756 5757 5756 5755 5755 5756 5754 5753 5755 5753 5753 5752 5751 5750 5747 5747 5744 5741 5739 5735 5733 5731 5730 5729 5729 5728 5726 5724 5721 5720 5718 5718 5717 5716
5764 5762 5764 5762 5762 5762 5760 5759 5757 5757 5758 5757 5756 5757 5758 5758 5757 5757 5755 5754 5753 5753 5751 5750 5750 5748 5744 5741 5738 5737 5734 5732 5731 5730 5730 5728 5726 5725 5724 5723 5721 5719 5718
5763 5760 5762 5763 5762 5764 5761 5760 5759 5761 5758 5758 5756 5758 5759 5761 5761 5760 5758 5757 5757 5757 5756 5754 5752 5751 5748 5745 5743 5741 5738 5736 5735 5734 5733 5733 5731 5728 5726 5725 5725 5724 5722
5763 5762 5761 5761 5759 5763 5764 5763 5762 5761 5761 5761 5755 5757 5761 5764 5764 5764 5765 5763 5762 5762 5760 5759 5757 5753 5752 5749 5748 5744 5743 5742 5739 5736 5735 5734 5733 5732 5730 5728 5727 5726 5725
5762 5760 5758 5756 5757 5760 5762 5761 5760 5758 5759 5757 5751 5751 5753 5759 5765 5768 5769 5767 5767 5766 5764 5763 5761 5759 5757 5755 5754 5752 5749 5747 5743 5741 5740 5738 5737 5735 5734 5733 5731 5729 5727
5762 5758 5757 5756 5755 5755 5757 5759 5758 5757 5753 5753 5754 5748 5748 5748 5754 5767 5766 5767 5766 5764 5763 5763 5762 5763 5760 5759 5758 5757 5755 5753 5750 5747 5744 5744 5741 5739 5738 5737 5735 5734 5732
5761 5759 5756 5754 5754 5753 5754 5755 5757 5757 5754 5751 5754 5755 5758 5755 5750 5752 5761 5762 5764 5764 5765 5764 5764 5764 5763 5761 5760 5760 5760 5758 5755 5753 5750 5748 5745 5743 5741 5740 5739 5738 5736
5760 5759 5756 5753 5753 5753 5753 5754 5756 5757 5757 5754 5752 5753 5758 5760 5758 5752 5750 5755 5760 5764 5766 5765 5765 5764 5764 5762 5760 5760 5760 5758 5759 5758 5756 5752 5750 5748 5747 5745 5743 5742 5740
5757 5757 5754 5752 5752 5753 5754 5756 5758 5759 5756 5754 5753 5754 5755 5757 5758 5756 5752 5752 5749 5755 5759 5760 5760 5762 5762 5762 5762 5762 5760 5759 5760 5760 5758 5756 5754 5753 5751 5749 5748 5747 5744
5754 5754 5755 5754 5753 5755 5756 5757 5756 5755 5753 5753 5753 5754 5757 5759 5761 5759 5755 5748 5745 5748 5754 5760 5760 5759 5758 5758 5759 5762 5763 5762 5762 5764 5760 5759 5758 5756 5754 5752 5752 5750 5747
5754 5756 5755 5755 5754 5754 5753 5752 5751 5750 5750 5751 5753 5755 5755 5756 5759 5758 5754 5749 5744 5746 5750 5751 5756 5756 5754 5755 5753 5755 5758 5760 5761 5760 5759 5758 5760 5756 5757 5757 5757 5754 5752
5754 5754 5754 5753 5752 5752 5751 5750 5747 5746 5747 5749 5750 5752 5753 5754 5755 5755 5753 5750 5745 5739 5739 5748 5745 5753 5752 5753 5752 5752 5753 5756 5757 5757 5755 5755 5757 5758 5758 5757 5749 5757 5753
5750 5750 5750 5750 5748 5748 5747 5746 5744 5744 5745 5746 5747 5748 5749 5750 5751 5752 5750 5748 5745 5739 5735 5745 5747 5751 5753 5754 5753 5752 5751 5751 5752 5754 5754 5755 5758 5759 5759 5755 5756 5755 5756
5747 5747 5747 5746 5745 5744 5743 5742 5742 5741 5740 5740 5742 5742 5743 5744 5743 5743 5744 5743 5741 5738 5734 5741 5747 5750 5749 5751 5754 5753 5751 5749 5750 5752 5755 5754 5756 5758 5757 5752 5754 5755 5749
5743 5741 5742 5743 5742 5741 5740 5737 5735 5735 5733 5734 5735 5735 5735 5737 5737 5735 5733 5734 5735 5736 5732 5731 5738 5743 5745 5750 5750 5748 5748 5749 5749 5752 5754 5756 5757 5756 5755 5756 5751 5749 5750
5739 5737 5735 5734 5734 5734 5731 5730 5729 5728 5728 5727 5725 5725 5725 5725 5724 5724 5724 5723 5725 5729 5730 5729 5730 5736 5740 5743 5742 5743 5743 5745 5748 5751 5753 5754 5755 5755 5754 5752 5748 5748 5750
5733 5729 5726 5725 5724 5721 5721 5722 5723 5720 5719 5717 5716 5715 5715 5714 5711 5710 5712 5713 5715 5718 5721 5722 5724 5725 5728 5733 5734 5731 5733 5739 5741 5747 5749 5750 5753 5754 5751 5750 5748 5749 5752
5721 5717 5714 5712 5712 5711 5709 5709 5711 5710 5707 5706 5704 5703 5703 5703 5701 5701 5699 5700 5702 5704 5708 5712 5714 5715 5715 5717 5717 5720 5720 5724 5734 5742 5743 5745 5748 5750 5751 5750 5749 5750 5752
5708 5702 5696 5697 5698 5700 5698 5699 5699 5699 5698 5695 5692 5692 5693 5693 5692 5691 5692 5691 5692 5692 5694 5699 5703 5702 5705 5706 5706 5706 5710 5712 5718 5729 5732 5733 5739 5742 5748 5751 5752 5751 5753
5701 5693 5686 5687 5686 5690 5691 5690 5688 5686 5684 5682 5680 5678 5680 5681 5682 5683 5683 5682 5682 5685 5689 5689 5691 5691 5693 5695 5694 5694 5698 5702 5706 5712 5715 5725 5731 5735 5742 5746 5749 5748 5746
5692 5685 5679 5678 5678 5677 5677 5678 5677 5673 5670 5670 5669 5667 5667 5668 5670 5673 5673 5671 5675 5676 5678 5681 5682 5686 5684 5688 5687 5688 5691 5693 5703 5708 5704 5714 5721 5730 5737 5741 5743 5744 5744
5682 5676 5672 5670 5667 5666 5665 5665 5665 5664 5661 5658 5659 5658 5659 5657 5659 5662 5662 5663 5665 5666 5669 5674 5677 5679 5683 5683 5683 5684 5687 5685 5693 5698 5702 5704 5711 5715 5725 5734 5739 5741 5741
5675 5669 5664 5661 5660 5657 5657 5657 5655 5653 5651 5650 5647 5647 5646 5646 5645 5646 5647 5647 5648 5651 5655 5659 5664 5669 5670 5673 5676 5676 5678 5678 5683 5691 5697 5692 5698 5700 5706 5721 5726 5729 5730